Powrót do katalogu

SL-8 DEB

AktywnyPO
NORAD 24818·DEBRIS·🇷🇺 Russia

Wystrzelony Sep 13, 1977 z Plesetsk Cosmodrome

Loading…

Następne Przeloty (najbliższe 24 godziny)

TLE

ŚwieżeSource: Space-Track

Epoka: Sep 14, 2026, 08:45 UTC

1 24818U 77087C   26257.36522950  .00000309  00000-0  27028-3 0  9990
2 24818  82.9690  26.9754 0033125 164.3915 224.5270 13.82324689461958

Śledź SL-8 DEB w czasie rzeczywistym z AllMySat

Download on the App Store